Location: Cartignies
(50.0929°N, 3.8447°E)
Time: 14:41:54
(UTC+00:00)

NOSS 3-4 (A) - Pass Details

Date: 12 January 2026
Orbit: 769 x 1442 km, 63.4° (Epoch: 10 January)

Event Time Altitude Azimuth Distance (km) Brightness Sun altitude
Rises 17:32:07 0° 185° (S) 3,226 6.6 -13.1°
Reaches altitude 10° 17:34:43 10° 174° (S) 2,318 5.6 -13.5°
Maximum altitude 17:39:11 29° 116° (ESE) 1,453 4.0 -14.2°
Enters shadow 17:41:28 22° 78° (ENE) 1,768 4.2 -14.6°
